Regional Weather Roundup
Issued by NWS

Home | Current Version | Previous Version | Text Only | Print | Product List | Glossary Off
Versions: 1 2 3 4 5 6 7 8 9 10 11 12 13 14 15 16 17 18 19 20 21 22 23 24 25 26 27 28 29 30 31 32 33 34 35 36 37 38 39 40 41 42 43 44 45 46 47 48

000
ASUS45 KCYS 022210
RWRWY

WYOMING REGIONAL WEATHER ROUNDUP
NATIONAL WEATHER SERVICE CHEYENNE WY
400 PM MDT THU JUL 02 2015

NOTE:  "FAIR" INDICATES FEW OR NO CLOUDS BELOW 12,000 FEET
WITH NO SIGNIFICANT WEATHER AND/OR OBSTRUCTIONS TO VISIBILITY.

WYZ001-022300-
YELLOWSTONE NATIONAL PARK

CITY           SKY/WX    TMP DP  RH WIND       PRES   REMARKS
LK YELLOWSTONE   N/A     74  42  31 VRB3      30.32F
W YELLOWSTONE  NOT AVBL

$$
WYZ002>013-054>058-071-098>099-022300-
NORTHERN WYOMING

CITY           SKY/WX    TMP DP  RH WIND       PRES   REMARKS
JACKSON        FAIR      86  34  15 W9        30.20S
CODY           FAIR      81  50  34 N12G18    30.17F
GREYBULL       FAIR      90  44  20 N14G21    30.05F
WORLAND        FAIR      88  49  25 N6        30.08F
SHERIDAN       PTSUNNY   84  54  35 N7        30.13F
BUFFALO        CLOUDY    76  55  48 N15G21    30.20S
GILLETTE       FAIR      78  56  46 N10G20    30.15F
HULETT         MOCLDY    73  54  49 N10       30.16F
NEWCASTLE      FAIR      77  50  38 NW18      30.15S

$$
WYZ014>020-022>026-101>103-022300-
CENTRAL WYOMING

CITY           SKY/WX    TMP DP  RH WIND       PRES   REMARKS
BIG PINEY      FAIR      85  45  24 S10       30.24F
PINEDALE       FAIR      82  41  23 NW14      30.24F
DUBOIS         FAIR      77  45  31 SE22G28   30.25R
LANDER         FAIR      82  50  32 CALM      30.16F
RIVERTON       FAIR      84  48  28 VRB7      30.16F
CASPER         FAIR      82  48  30 VRB5      30.15F
DOUGLAS        FAIR      80  54  40 N8        30.17S

$$
WYZ021-027>030-104>119-022300-
SOUTHERN WYOMING

CITY           SKY/WX    TMP DP  RH WIND       PRES   REMARKS
EVANSTON       FAIR      84  37  18 SW10G22   30.25F
KEMMERER       MOCLDY    86  32  14 W3        30.26S
FORT BRIDGER   CLEAR     91  32  12 W13       30.25F
ROCK SPRINGS   FAIR      86  43  22 VRB6      30.20F
DIXON          FAIR      87  40  19 NW10G20   30.21F
RAWLINS        FAIR      79  51  37 E6        30.24F
SARATOGA       FAIR      79  46  31 N10G21    30.27S
LARAMIE        FAIR      77  43  29 CALM      30.26F
CHEYENNE       FAIR      79  51  37 NE13G20   30.21F
TORRINGTON     PTSUNNY   82  55  39 NE9       30.10F
PINE BLUFFS    MOCLDY    81  52  36 NE15      30.17S

$$



USA.gov is the U.S. government's official web portal to all federal, state and local government web resources and services.